Showing default

GOES 5, 12472

Orbit data source: Space-Track

GOES 5, 12472 is a payload satellite owned by NOAA (US) in GEO that was launched on Fri, 22 May 1981 UTC via a DELTA 3914 launch vehicle from the Air Force Eastern Test Range (AFETR). Payload-class satellites include a variety of spacecraft equipped with specific instruments for various scientific and technological missions. These include communications satellites like Starlink; space stations such as the ISS; scientific satellites like the Hubble; Earth observation satellites from companies like Planet Labs, Umbra, and HawkEye 360; GPS; miniature CubeSats for education and research; and military/defense satellites.

Loading next visibility...
Identifier
12472, 1981-049A
Orbit
GEO
Last TLE update
18 hours ago
Origin
Manufacturer
Hughes
Mission
Non-operational Civil Weather
Bus & Motor
HS-371, STAR 27 TE-
Mass
836 kg wet, ~295 kg dry
Launch date (UTC)
1981-05-22 (44 years ago)
Launch vehicle
DELTA 3914
Launch site
Air Force Eastern Test Range (AFETR)
Object type
Payload
Rocket body
Debris
Shape & HBR
Cyl + 1 Ant, 4.4 m
Radar Cross Section
7.914 m², Large (>1 m²)

Expand to show TLE details & history

TLE from 18 hours ago
0 GOES 5
1 12472U 81049A   25128.51026707 -.00000278  00000-0  00000-0 0  9992
2 12472  10.0854 318.3450 0001851 322.0455  55.0061  1.00312551118797
Epoch: 2025-05-08T12:14Z
Definitive object data (Epoch: 2025-05-08T12:14:47.074Z)
Latitude
2.96766°
Longitude
-75.10793°
Altitude
35,769.929 km
Speed
3.075 km/s
True Right ascension
22h 20m 40s
True Declination
2° 57' 53"
Sunlit
Object was in daylight at TLE epoch
Visualization TLE readout
Latitude
-9.64395°
Longitude
-164.64173°
Altitude
35,770.199 km
Speed
3.076 km/s
Apparent Right ascension
16h 37m 49s
Apparent Declination
-16° 33' 25"
Sunlit
Object is in daylight
Visualization observer readout
Local Sidereal Time
14:20:10
Azimuth
143.271° SSE
Elevation
25.067°
Doppler factor
1
Orbital elements
Apogee altitude
35,783.996 km
Perigee altitude
35,768.39 km
Semi-major axis
42,154.33 km
Eccentricity
0.0001851
Inclination
10.0854°
RAAN
318.345°
Arg. of periapsis
322.0455°
True anomaly
55.02348°
Mean anomaly
55.0061°
Eccentric anomaly
55.01479°
Mean motion
0.25077 °/min
BSTAR
Unknown
Orbital period
1435.56 mins
Loading historical data...
12472 neighbors
Loading maneuver chart data...
Loading SW <> Apogee altitude chart data...
Loading historical data...
Loading historical data...
Loading historical data...
Loading historical data...
Loading historical data...
Loading historical data...
Loading historical data...
Other satellites on launch #49 in the year 1981 (1981-05-22 UTC)

GOES 5 Visibility forecast

Observer location: undefined°, undefined°

Span
Click to sort rows by Start time (UTC) header in descending order
Start Az.
Max El. time (UTC)
Max El. Az.
Max El.
End time (UTC)
End Az.
1440 mins2025-05-09 06:11:22.582Z143.282° SSE2025-05-09 16:47:22.582Z129.516° SE34.542°2025-05-10 06:11:22.582Z143.087° SSE
|